Location: breval
(48.9474°N, 1.5319°E)
Time: 03:55:55
(UTC+00:00)

OTV 5 (USA 277) - Visible Passes

Search period start: 25 February 2018 00:00
Search period end: 07 March 2018 00:00
Orbit: 404 x 417 km, 43.0° (Epoch: 07 September)

Date Brightness Start Highest point End Pass type
(mag) Time Alt. Az. Time Alt. Az. Time Alt. Az.
25 Feb ? 04:47:48 20° S 04:48:07 20° SSE 04:50:37 10° ESE visible
26 Feb ? 03:59:06 11° ESE 03:59:06 11° ESE 03:59:24 10° ESE visible
26 Feb ? 05:31:51 15° SW 05:33:57 28° S 05:36:51 10° ESE visible
27 Feb ? 04:43:07 26° SSE 04:43:07 26° SSE 04:45:50 10° ESE visible
28 Feb ? 03:54:23 12° ESE 03:54:23 12° ESE 03:54:47 10° ESE visible
28 Feb ? 05:27:08 17° SW 05:28:54 28° S 05:31:46 10° SE visible
01 Mar ? 04:38:23 27° SSE 04:38:23 27° SSE 04:40:51 10° ESE visible
02 Mar ? 03:49:40 11° ESE 03:49:40 11° ESE 03:49:53 10° ESE visible
02 Mar ? 05:22:25 17° SW 05:23:49 22° SSW 05:26:26 10° SE visible
03 Mar ? 04:33:44 22° SSE 04:33:44 22° SSE 04:35:40 10° SE visible
04 Mar ? 05:17:52 14° SW 05:18:39 15° SSW 05:20:36 10° SSE visible
05 Mar ? 04:29:19 14° SSE 04:29:19 14° SSE 04:30:08 10° SSE visible
